STARLINK-32455, 61632

Orbit data source: Space-Track

STARLINK-32455, 61632 is a payload satellite owned by SpaceX/Seattle (US) in LEO that was launched on Wed, 23 Oct 2024 UTC via an FALCON 9 launch vehicle from the Air Force Eastern Test Range (AFETR). Payload-class satellites include a variety of spacecraft equipped with specific instruments for various scientific and technological missions. These include communications satellites like Starlink; space stations such as the ISS; scientific satellites like the Hubble; Earth observation satellites from companies like Planet Labs, Umbra, and HawkEye 360; GPS; miniature CubeSats for education and research; and military/defense satellites.

Loading next visibility...
Identifier
61632, 2024-191M
Orbit
LEO
Last TLE update
7 hours ago
Origin
Manufacturer
SpaceX/Seattle
Mission
Operational Commercial Communications
Bus & Motor
STARLINK V2M, Unknown motor
Mass
730 kg wet, ~700 kg dry
Launch date (UTC)
2024-10-23 (8 months ago)
Launch vehicle
FALCON 9
Launch site
Air Force Eastern Test Range (AFETR)
Object type
Payload
Rocket body
Debris
Shape & HBR
Box + 2 Pan, 29 m
Radar Cross Section
36.964 m², Large (>1 m²)

Expand to show TLE details & history

TLE from 7 hours ago
0 STARLINK-32455
1 61632U 24191M   25182.87140636 -.00000219  00000-0  15805-5 0  9995
2 61632  43.0011 134.7458 0001163 276.1279  83.9440 15.27581946 39138
Epoch: 2025-07-01T20:54Z
TLE epoch observation values (Epoch: 2025-07-01T20:54:49.509Z)
Latitude
-0.00003°
Longitude
-99.12116°
Altitude
482.735 km
Speed
7.626 km/s
True Right ascension
08h 58m 58s
True Declination
0° 00' 00"
Sunlit
Object was in daylight at epoch
Visualization orbit readout
Latitude
-26.3641°
Longitude
111.08178°
Altitude
489.262 km
Speed
7.621 km/s
Apparent Right ascension
01h 05m 58s
Apparent Declination
-38° 28' 32"
Sunlit
Object is in full shadow
Visualization observer readout
Local Sidereal Time
15:50:25
Azimuth
100.857° ESE
Elevation
-58.389°
Doppler factor
1
Orbital elements
Apogee altitude
485.786 km
Perigee altitude
484.19 km
Semi-major axis
6,863.125 km
Eccentricity
0.00012
Inclination
43.0011°
RAAN
134.7458°
Arg. of periapsis
276.1279°
True anomaly
Unknown
Mean anomaly
83.944°
Eccentric anomaly
Unknown
Mean motion
3.81734 °/min
Orbital period
94.31 mins
BSTAR
0.0000015805
Loading maneuver chart data...
Loading SW <> Apogee altitude chart data...
Loading historical data...
Loading historical data...
Loading historical data...
Loading historical data...
Loading historical data...
Loading historical data...
Loading historical data...

STARLINK-32455 Visibility forecast

Observer location: undefined°, undefined°

Span
Click to sort rows by Start time (UTC) header in descending order
Start Az.
Max El. time (UTC)
Max El. Az.
Max El.
End time (UTC)
End Az.
6 mins2025-07-02 05:12:03.587Z285.41° WNW2025-07-02 05:15:03.587Z235.398° WSW43.129°2025-07-02 05:18:03.587Z119.321° SE
5 mins2025-07-02 23:48:03.587Z207.472° SW2025-07-02 23:50:03.587Z164.464° S28.776°2025-07-02 23:53:03.587Z89.958° E
5 mins2025-07-03 01:27:03.587Z265.828° W2025-07-03 01:29:03.587Z318.125° NNW42.823°2025-07-03 01:32:03.587Z68.676° E
6 mins2025-07-03 03:06:03.587Z292.497° WNW2025-07-03 03:08:03.587Z337.637° N37.278°2025-07-03 03:12:03.587Z82.035° E
|